Amateur Radio Satellites - All Passes

Search period start: 22 May 2013 21:05
Search period end: 23 May 2013 21:05
Location: Valdosta, 30.8330°N, 83.2790°W

Satellite Date Start Highest point End Downlink Frequencies (MHz)
Time Altitude Azimuth
HO-68 22 May 21:08:29 21:14:01 25° 64° (ENE) 21:19:33 435.675 MHz FM
AO-40 22 May 21:10:06 03:43:05 58° 178° (S) 10:01:27 Beacon 2401.320
JAS-2 22 May 21:27:10 21:33:13 26° 65° (ENE) 21:39:21 435.800 - 435.900 CW/SSB, 435.910 FM
SO-67 22 May 21:27:17 21:29:47 18° 264° (W) 21:32:17 435.3500 MHz FM
UOSAT-12 22 May 21:34:56 21:39:30 62° 61° (ENE) 21:44:02 437.025 FM, 437.400 FM
KITSAT 1 22 May 22:04:47 22:09:56 19° 103° (ESE) 22:15:07 435.175 FM
JAS-1B 22 May 22:15:07 22:21:55 22° 264° (W) 22:28:12 435.800 - 435.900 CW/SSB
Oscar 11 22 May 22:39:08 22:43:25 75° 77° (ENE) 22:47:44 145.825 FM, Beacon 2401.500 USB
OPAL 22 May 22:49:46 22:54:47 51° 72° (ENE) 22:59:47 ?
HO-68 22 May 22:54:23 23:01:15 51° 259° (WSW) 23:08:09 435.675 MHz FM
JAS-2 22 May 23:10:12 23:17:35 57° 260° (W) 23:25:19 435.800 - 435.900 CW/SSB, 435.910 FM
KITSAT 1 22 May 23:56:28 00:04:29 71° 297° (WNW) 00:12:35 435.175 FM
RS-15 23 May 00:26:03 00:32:46 17° 36° (NE) 00:39:19 29.354 - 29.394 USB, Beacon 29.352 USB
OPAL 23 May 00:31:02 00:33:51 15° 264° (W) 00:36:40 ?
ISS 23 May 01:41:33 01:43:16 14° 126° (SE) 01:44:58 145.800 FM
MaSat-1 23 May 01:48:05 01:55:07 48° 108° (ESE) 02:01:13 437.345 MHz
KITSAT 1 23 May 01:57:35 02:01:19 14° 317° (NW) 02:05:04 435.175 FM
Uribyol 2 23 May 02:24:20 02:27:30 16° 94° (E) 02:30:39 436.500 FM
Oscar 19 23 May 02:26:47 02:30:31 20° 95° (E) 02:34:13 437.125 CW, 437.150 USB
RS-15 23 May 02:36:30 02:47:32 70° 61° (ENE) 02:58:21 29.354 - 29.394 USB, Beacon 29.352 USB
Oscar 16 23 May 03:05:01 03:10:09 63° 101° (ESE) 03:15:14 437.025 USB, Beacon 2401.1428
AO-27 23 May 03:14:24 03:19:32 55° 101° (E) 03:24:38 436.795 MHz FM
ISS 23 May 03:16:37 03:19:41 36° 318° (NW) 03:22:47 145.800 FM
ITAMSAT 1 23 May 03:20:58 03:26:09 63° 102° (ESE) 03:31:19 435.822 SSB
MaSat-1 23 May 03:31:27 03:37:19 27° 297° (WNW) 03:42:27 437.345 MHz
Uosat F 23 May 04:01:04 04:04:35 19° 96° (E) 04:08:04 435.120 FM
Uribyol 2 23 May 04:02:09 04:07:08 46° 287° (WNW) 04:12:05 436.500 FM
Oscar 19 23 May 04:05:13 04:09:54 36° 288° (WNW) 04:14:33 437.125 CW, 437.150 USB
AO-Echo 23 May 04:06:50 04:11:33 59° 101° (E) 04:16:23 ?
Oscar 16 23 May 04:46:59 04:48:54 12° 295° (WNW) 04:50:50 437.025 USB, Beacon 2401.1428
RS-15 23 May 04:50:44 04:58:45 24° 257° (WSW) 05:06:46 29.354 - 29.394 USB, Beacon 29.352 USB
AO-27 23 May 04:55:51 04:58:32 14° 294° (WNW) 05:01:12 436.795 MHz FM
TMSAT-1 23 May 04:57:43 05:02:42 40° 99° (E) 05:07:39 436.925 FM
ITAMSAT 1 23 May 05:02:58 05:05:03 12° 295° (WNW) 05:07:09 435.822 SSB
AO-7 23 May 05:14:21 05:20:20 21° 96° (E) 05:26:17 29.400 - 29.500 MHz
Gurwin Techsat 1B 23 May 05:19:27 05:24:46 77° 284° (WNW) 05:30:03 435.225 FM
Saudisat 1A 23 May 05:30:08 05:34:11 33° 112° (ESE) 05:38:17 436.775 MHz
Uosat F 23 May 05:38:50 05:43:25 37° 288° (WNW) 05:48:00 435.120 FM
AO-Echo 23 May 05:48:31 05:49:51 11° 294° (WNW) 05:51:11 ?
STRAND 1 23 May 06:05:45 06:08:38 15° 66° (ENE) 06:11:31 ?
TMSAT-1 23 May 06:38:34 06:42:17 20° 292° (WNW) 06:46:00 436.925 FM
AO-7 23 May 07:05:14 07:13:30 66° 290° (WNW) 07:21:44 29.400 - 29.500 MHz
Saudisat 1A 23 May 07:10:29 07:13:54 21° 306° (NW) 07:17:22 436.775 MHz
PCSat 23 May 07:29:39 07:34:52 53° 111° (ESE) 07:40:08 145.825 MHz
STRAND 1 23 May 07:42:29 07:47:23 48° 260° (W) 07:52:18 ?
KITSAT 1 23 May 07:56:52 08:03:06 23° 50° (NE) 08:09:17 435.175 FM
Sapphire 23 May 08:02:27 08:07:50 79° 295° (WNW) 08:13:16 437.095 MHz 1200 baud AX-25 AFSK
JAS-1B 23 May 08:16:35 08:20:34 19° 95° (E) 08:24:29 435.800 - 435.900 CW/SSB
Hamsat 23 May 08:33:18 08:37:41 85° 102° (ESE) 08:42:04 145.90 MHz
Oscar 10/S400 23 May 08:36:11 10:57:48 36° 272° (W) 18:43:52 145.825 - 145.975 CW/USB, Beacon 145.810 USB
SO-50 23 May 08:42:39 08:47:19 51° 114° (ESE) 08:51:56 436.795 FM
SO-67 23 May 08:58:18 09:01:48 49° 99° (E) 09:05:16 435.3500 MHz FM
AO-7 23 May 09:03:15 09:04:42 11° 307° (NW) 09:06:10 29.400 - 29.500 MHz
PCSat 23 May 09:15:03 09:18:35 17° 306° (NW) 09:22:08 145.825 MHz
ISS 23 May 09:49:59 09:52:24 18° 37° (NE) 09:54:49 145.800 FM
KITSAT 1 23 May 09:51:01 09:59:05 69° 248° (WSW) 10:07:06 435.175 FM
JAS-1B 23 May 10:06:05 10:11:27 39° 290° (WNW) 10:16:39 435.800 - 435.900 CW/SSB
SO-50 23 May 10:25:19 10:28:11 16° 308° (NW) 10:31:03 436.795 FM
HO-68 23 May 10:27:59 10:34:43 43° 100° (E) 10:41:25 435.675 MHz FM
JAS-2 23 May 10:28:10 10:33:42 29° 94° (E) 10:38:40 435.800 - 435.900 CW/SSB, 435.910 FM
Oscar 11 23 May 10:33:24 10:36:43 21° 96° (E) 10:40:02 145.825 FM, Beacon 2401.500 USB
OPAL 23 May 11:06:17 11:09:59 21° 98° (E) 11:13:40 ?
PANSAT 23 May 11:12:00 11:15:14 25° 161° (SSE) 11:18:28 not established
ISS 23 May 11:26:07 11:29:10 33° 230° (SW) 11:32:13 145.800 FM
UOSAT-12 23 May 11:41:09 11:45:36 69° 116° (ESE) 11:50:06 437.025 FM, 437.400 FM
Oscar 11 23 May 12:09:17 12:12:51 25° 288° (WNW) 12:16:24 145.825 FM, Beacon 2401.500 USB
JAS-2 23 May 12:12:50 12:18:44 34° 292° (WNW) 12:24:01 435.800 - 435.900 CW/SSB, 435.910 FM
HO-68 23 May 12:16:07 12:22:06 30° 294° (WNW) 12:28:05 435.675 MHz FM
MaSat-1 23 May 12:22:00 12:24:50 41° 65° (ENE) 12:27:17 437.345 MHz
OPAL 23 May 12:44:27 12:48:53 33° 291° (WNW) 12:53:15 ?
PANSAT 23 May 12:51:30 12:55:19 53° 173° (S) 12:59:07 not established
UOSAT-12 23 May 13:24:57 13:26:12 11° 311° (NW) 13:27:28 437.025 FM, 437.400 FM
Uribyol 2 23 May 13:37:52 13:40:36 15° 66° (ENE) 13:43:22 436.500 FM
Oscar 19 23 May 13:39:03 13:42:25 18° 67° (ENE) 13:45:47 437.125 CW, 437.150 USB
Oscar 16 23 May 14:16:36 14:21:37 52° 74° (ENE) 14:26:40 437.025 USB, Beacon 2401.1428
AO-27 23 May 14:27:20 14:32:16 48° 73° (ENE) 14:37:13 436.795 MHz FM
PANSAT 23 May 14:31:43 14:35:33 57° 185° (S) 14:39:22 not established
ITAMSAT 1 23 May 14:33:42 14:38:43 54° 74° (ENE) 14:43:46 435.822 SSB
RS-15 23 May 14:46:48 14:52:12 14° 99° (E) 14:57:29 29.354 - 29.394 USB, Beacon 29.352 USB
Uosat F 23 May 15:10:12 15:13:00 15° 67° (ENE) 15:15:49 435.120 FM
Uribyol 2 23 May 15:14:34 15:19:35 53° 259° (W) 15:24:40 436.500 FM
AO-Echo 23 May 15:14:48 15:19:25 42° 74° (ENE) 15:23:55 ?
Oscar 19 23 May 15:16:27 15:21:22 44° 261° (W) 15:26:19 437.125 CW, 437.150 USB
Saudisat 1A 23 May 15:41:43 15:46:14 74° 62° (ENE) 15:50:38 436.775 MHz
Oscar 16 23 May 15:58:37 16:01:12 14° 266° (W) 16:03:47 437.025 USB, Beacon 2401.1428
AO-7 23 May 16:08:46 16:14:05 19° 58° (ENE) 16:19:25 29.400 - 29.500 MHz
AO-27 23 May 16:09:04 16:11:58 15° 266° (W) 16:14:53 436.795 MHz FM
PANSAT 23 May 16:12:15 16:15:40 29° 198° (SSW) 16:19:03 not established
TMSAT-1 23 May 16:13:19 16:18:07 37° 72° (ENE) 16:22:56 436.925 FM
ITAMSAT 1 23 May 16:16:08 16:18:28 13° 267° (W) 16:20:49 435.822 SSB
PCSat 23 May 16:24:49 16:27:46 15° 53° (NE) 16:30:42 145.825 MHz
Gurwin Techsat 1B 23 May 16:35:02 16:40:20 84° 257° (WSW) 16:45:40 435.225 FM
Uosat F 23 May 16:46:34 16:51:22 47° 260° (W) 16:56:11 435.120 FM
RS-15 23 May 16:50:47 17:02:56 80° 114° (ESE) 17:14:38 29.354 - 29.394 USB, Beacon 29.352 USB
AO-Echo 23 May 16:55:36 16:58:18 15° 265° (W) 17:00:58 ?
Sapphire 23 May 16:56:35 17:01:08 27° 58° (ENE) 17:05:39 437.095 MHz 1200 baud AX-25 AFSK
SO-50 23 May 17:22:29 17:23:56 11° 49° (NE) 17:25:22 436.795 FM
TMSAT-1 23 May 17:54:12 17:58:04 21° 265° (W) 18:01:58 436.925 FM
AO-7 23 May 17:57:39 18:05:55 79° 254° (WSW) 18:14:16 29.400 - 29.500 MHz
PCSat 23 May 18:06:15 18:11:37 65° 248° (WSW) 18:16:57 145.825 MHz
Sapphire 23 May 18:39:44 18:44:31 32° 252° (WSW) 18:49:16 437.095 MHz 1200 baud AX-25 AFSK
JAS-1B 23 May 18:55:13 19:00:34 18° 64° (ENE) 19:05:30 435.800 - 435.900 CW/SSB
SO-50 23 May 19:00:30 19:04:58 65° 245° (WSW) 19:09:22 436.795 FM
RS-15 23 May 19:06:49 19:16:30 28° 314° (NW) 19:25:56 29.354 - 29.394 USB, Beacon 29.352 USB
Hamsat 23 May 19:22:30 19:26:09 30° 73° (ENE) 19:29:50 145.90 MHz
STRAND 1 23 May 19:58:30 20:03:40 90° 105° (ESE) 20:08:49 ?
AO-7 23 May 19:58:36 19:59:36 10° 268° (W) 20:00:36 29.400 - 29.500 MHz
UOSAT-12 23 May 20:17:29 20:20:04 15° 51° (NE) 20:22:39 437.025 FM, 437.400 FM
JAS-1B 23 May 20:40:48 20:50:22 88° 256° (WSW) 20:58:37 435.800 - 435.900 CW/SSB
HO-68 23 May 20:52:48 20:57:22 19° 62° (ENE) 21:01:56 435.675 MHz FM
Hamsat 23 May 20:59:39 21:02:14 16° 266° (W) 21:04:51 145.90 MHz

Developed and maintained by Chris Peat, Heavens-Above GmbH. Please read the updated FAQ before sending e-mail. Imprint. DLR
